Minden, LA

12:43 AM CDT on August 31, 2016 (GMT -0500)
Minden

Weather History for KMNE - May, 2014

Change the Weather History Date:

Monday, May 12, 2014

  Actual Average (KBAD) Record (KBAD)
Temperature  
Mean Temperature 80 °F -  
Max Temperature 87 °F 80 °F 91 °F (2002)
Min Temperature 72 °F 60 °F 45 °F (2008)
Cooling Degree Days 15    
Growing Degree Days 30 (Base 50)    
Moisture  
Dew Point 69 °F    
Average Humidity 75    
Maximum Humidity 86    
Minimum Humidity 54    
Precipitation  
Precipitation 0.00 in - - ()
Sea Level Pressure  
Sea Level Pressure 29.94 in    
Wind  
Wind Speed 9 mph (SSE)    
Max Wind Speed 21 mph    
Max Gust Speed 29 mph    
Visibility 10 miles    
Events Rain , Thunderstorm    
Averages and records for this station are not official NWS values.
T = Trace of Precipitation, MM = Missing Value Source: NWS Daily Summary

Daily Weather History Graph

Daily Weather History Graph

Search for Another Location

Airport or City:

Trip Planner

Search our weather history database for the weather conditions in past years. The results will help you decide how hot, cold, wet, or windy it might be!

Date:

Astronomy

May. 12, 2014 Rise Set
Actual Time 6:16 AM CDT 8:02 PM CDT
Civil Twilight 5:49 AM CDT 8:29 PM CDT
Nautical Twilight 5:17 AM CDT 9:02 PM CDT
Astronomical Twilight 4:43 AM CDT 9:36 PM CDT
Moon 6:08 PM CDT (5/12) 4:47 AM CDT (5/12)
Length of Visible Light 14h 39m
Length of Day
13h 46m
Waxing Gibbous, 95% of the Moon is Illuminated
May 12
Waxing Gibbous
May 14
Full
May 21
Last Quarter
May 28
New
Jun 5
First Quarter

Hourly Weather History & Observations

Time (CDT) Temp. Heat Index Dew Point Humidity Pressure Visibility Wind Dir Wind Speed Gust Speed Precip Events Conditions
12:15 AM 73.9 °F - 68.9 °F 84% 29.89 in 10.0 mi ESE 9.2 mph 16.1 mph N/A   Overcast
12:35 AM 73.8 °F - 68.5 °F 84% 29.89 in 10.0 mi SE 10.4 mph 18.4 mph N/A   Overcast
12:55 AM 73.8 °F - 68.9 °F 85% 29.89 in 10.0 mi SE 11.5 mph - N/A   Overcast
1:15 AM 73.6 °F - 68.9 °F 85% 29.88 in 10.0 mi SE 11.5 mph 17.3 mph N/A   Overcast
1:35 AM 73.8 °F - 69.1 °F 85% 29.88 in 10.0 mi SE 9.2 mph 16.1 mph N/A   Overcast
1:55 AM 74.3 °F - 69.3 °F 84% 29.88 in 10.0 mi ESE 10.4 mph - N/A   Overcast
2:15 AM 74.5 °F - 69.4 °F 84% 29.88 in 10.0 mi SE 10.4 mph - N/A   Overcast
2:35 AM 75.0 °F - 69.6 °F 83% 29.88 in 10.0 mi SE 6.9 mph 17.3 mph N/A   Overcast
2:55 AM 74.7 °F - 69.8 °F 85% 29.89 in 10.0 mi SE 9.2 mph - N/A   Overcast
3:15 AM 74.8 °F - 70.0 °F 85% 29.89 in 10.0 mi SE 9.2 mph 17.3 mph N/A Rain Light Rain
3:35 AM 74.7 °F - 70.2 °F 86% 29.89 in 10.0 mi SE 6.9 mph - N/A   Overcast
3:55 AM 75.2 °F - 70.2 °F 84% 29.89 in 10.0 mi ESE 9.2 mph - N/A   Overcast
4:15 AM 75.2 °F - 70.3 °F 85% 29.89 in 10.0 mi ESE 10.4 mph - N/A   Overcast
4:35 AM 75.2 °F - 70.3 °F 85% 29.89 in 10.0 mi ESE 10.4 mph - N/A   Overcast
4:55 AM 75.2 °F - 70.3 °F 85% 29.91 in 10.0 mi SE 9.2 mph - N/A   Overcast
5:15 AM 75.2 °F - 70.3 °F 85% 29.92 in 10.0 mi SE 5.8 mph - N/A   Overcast
5:35 AM 74.8 °F - 70.3 °F 86% 29.93 in 10.0 mi SE 8.1 mph - N/A   Overcast
5:55 AM 75.2 °F - 70.2 °F 84% 29.93 in 10.0 mi ESE 9.2 mph 16.1 mph N/A   Overcast
6:15 AM 75.2 °F - 70.2 °F 84% 29.93 in 10.0 mi ESE 8.1 mph - N/A   Overcast
6:35 AM 74.7 °F - 70.0 °F 85% 29.94 in 10.0 mi SSE 9.2 mph - N/A   Overcast
6:55 AM 75.2 °F - 70.2 °F 84% 29.95 in 10.0 mi SSE 8.1 mph - N/A   Overcast
7:15 AM 75.4 °F - 70.2 °F 84% 29.96 in 10.0 mi SSE 5.8 mph - N/A   Overcast
7:35 AM 75.6 °F - 70.2 °F 83% 29.96 in 10.0 mi SSE 8.1 mph - N/A   Overcast
7:55 AM 76.1 °F - 70.3 °F 82% 29.96 in 10.0 mi SE 10.4 mph 16.1 mph N/A   Overcast
8:15 AM 76.6 °F - 70.7 °F 82% 29.97 in 10.0 mi SE 11.5 mph 16.1 mph N/A   Overcast
8:35 AM 77.0 °F - 70.7 °F 81% 29.97 in 10.0 mi SSE 8.1 mph - N/A   Overcast
8:55 AM 77.5 °F - 70.7 °F 79% 29.98 in 10.0 mi SE 10.4 mph 17.3 mph N/A   Overcast
9:15 AM 78.3 °F - 70.7 °F 77% 29.99 in 10.0 mi SE 8.1 mph - N/A   Overcast
9:35 AM 78.1 °F - 70.7 °F 78% 29.99 in 10.0 mi SSE 10.4 mph 16.1 mph N/A   Overcast
9:55 AM 78.6 °F - 70.7 °F 77% 29.99 in 10.0 mi SSE 6.9 mph - N/A   Overcast
10:15 AM 79.9 °F - 70.2 °F 72% 29.99 in 10.0 mi South 12.7 mph 20.7 mph N/A   Overcast
10:35 AM 80.2 °F 83.5 °F 70.2 °F 71% 29.99 in 10.0 mi South 8.1 mph 17.3 mph N/A   Mostly Cloudy
10:55 AM 82.8 °F 86.9 °F 70.3 °F 66% 29.99 in 10.0 mi SSE 11.5 mph 17.3 mph N/A   Overcast
11:15 AM 82.9 °F 87.2 °F 70.3 °F 66% 29.99 in 10.0 mi SE 11.5 mph 20.7 mph N/A   Overcast
11:35 AM 83.1 °F 87.1 °F 70.0 °F 64% 30.00 in 10.0 mi SSE 10.4 mph - N/A   Overcast
11:55 AM 82.6 °F 86.4 °F 69.8 °F 65% 30.01 in 10.0 mi SSE 8.1 mph - N/A   Overcast
12:15 PM 82.8 °F 87.2 °F 70.7 °F 67% 30.01 in 10.0 mi SSE 4.6 mph - N/A   Overcast
12:35 PM 84.6 °F 88.8 °F 69.8 °F 61% 30.00 in 10.0 mi South 10.4 mph 16.1 mph N/A   Mostly Cloudy
12:55 PM 83.3 °F 87.1 °F 69.6 °F 63% 29.99 in 10.0 mi SSE 10.4 mph 16.1 mph N/A   Mostly Cloudy
1:15 PM 84.2 °F 89.3 °F 71.4 °F 65% 29.98 in 10.0 mi SE 9.2 mph 17.3 mph N/A Rain Light Rain
1:35 PM 85.5 °F 91.5 °F 72.0 °F 64% 29.98 in 10.0 mi SSE 11.5 mph 17.3 mph N/A   Scattered Clouds
1:55 PM 86.0 °F 91.1 °F 70.7 °F 60% 29.97 in 10.0 mi SSE 10.4 mph 23.0 mph N/A   Mostly Cloudy
2:35 PM 85.1 °F 90.4 °F 71.2 °F 63% 29.95 in 10.0 mi SE 10.4 mph 16.1 mph N/A   Scattered Clouds
2:55 PM 84.7 °F 88.8 °F 69.4 °F 60% 29.94 in 10.0 mi SSE 9.2 mph 21.9 mph N/A   Mostly Cloudy
3:15 PM 86.4 °F 92.2 °F 71.2 °F 61% 29.93 in 10.0 mi SSE 4.6 mph - N/A   Scattered Clouds
3:35 PM 87.4 °F 92.7 °F 70.5 °F 57% 29.91 in 10.0 mi South 13.8 mph 20.7 mph N/A   Scattered Clouds
3:55 PM 87.6 °F 91.9 °F 69.1 °F 54% 29.89 in 10.0 mi SSE 13.8 mph 24.2 mph N/A   Scattered Clouds
4:15 PM 86.9 °F 91.0 °F 69.1 °F 55% 29.88 in 10.0 mi SSE 10.4 mph 20.7 mph N/A   Scattered Clouds
4:35 PM 86.4 °F 90.7 °F 69.3 °F 57% 29.89 in 10.0 mi SSE 13.8 mph 25.3 mph N/A   Mostly Cloudy
4:55 PM 86.0 °F 89.7 °F 68.7 °F 56% 29.89 in 10.0 mi SE 20.7 mph 27.6 mph N/A   Mostly Cloudy
5:15 PM 84.0 °F 87.6 °F 68.7 °F 60% 29.90 in 10.0 mi South 16.1 mph 28.8 mph N/A   Mostly Cloudy
5:35 PM 81.7 °F 84.9 °F 68.9 °F 65% 29.90 in 10.0 mi SSE 15.0 mph 23.0 mph N/A   Scattered Clouds
5:55 PM 81.1 °F 84.4 °F 69.4 °F 67% 29.91 in 10.0 mi SSE 12.7 mph 19.6 mph N/A   Clear
6:15 PM 81.5 °F 84.9 °F 69.4 °F 67% 29.91 in 10.0 mi SSE 11.5 mph 21.9 mph N/A   Scattered Clouds
6:35 PM 80.1 °F 82.7 °F 68.4 °F 67% 29.89 in 10.0 mi SSE 13.8 mph 21.9 mph N/A   Scattered Clouds
6:55 PM 79.2 °F - 68.4 °F 69% 29.89 in 10.0 mi SSE 9.2 mph 24.2 mph N/A   Clear
7:15 PM 78.1 °F - 68.4 °F 72% 29.88 in 10.0 mi SSE 8.1 mph 18.4 mph N/A   Clear
7:35 PM 77.5 °F - 68.4 °F 73% 29.89 in 10.0 mi SSE 5.8 mph 16.1 mph N/A   Clear
7:55 PM 76.8 °F - 68.0 °F 74% 29.89 in 10.0 mi SE 8.1 mph - N/A   Clear
8:15 PM 76.3 °F - 67.5 °F 74% 29.89 in 10.0 mi SE 6.9 mph - N/A   Clear
8:35 PM 76.1 °F - 66.4 °F 72% 29.90 in 10.0 mi SSE 9.2 mph 20.7 mph N/A   Clear
8:55 PM 75.6 °F - 66.2 °F 73% 29.92 in 10.0 mi SSE 6.9 mph - N/A   Clear
9:15 PM 74.8 °F - 66.2 °F 74% 29.93 in 10.0 mi South 4.6 mph - N/A   Clear
9:35 PM 74.3 °F - 66.4 °F 76% 29.94 in 10.0 mi SSE 3.5 mph - N/A   Clear
9:55 PM 73.6 °F - 66.4 °F 78% 29.96 in 10.0 mi Calm Calm - N/A   Scattered Clouds
10:15 PM 73.6 °F - 67.5 °F 81% 29.97 in 10.0 mi Calm Calm - N/A   Mostly Cloudy
10:35 PM 73.6 °F - 67.1 °F 80% 30.00 in 10.0 mi WNW 4.6 mph - N/A Thunderstorm Overcast
10:55 PM 73.6 °F - 67.3 °F 81% 30.00 in 10.0 mi NNW 4.6 mph - N/A Thunderstorm Overcast
11:15 PM 73.4 °F - 68.0 °F 83% 29.99 in 10.0 mi NNW 3.5 mph - N/A   Overcast
11:35 PM 73.2 °F - 68.0 °F 84% 29.98 in 10.0 mi WNW 4.6 mph - N/A Thunderstorm Overcast
11:55 PM 72.7 °F - 67.8 °F 85% 29.98 in 10.0 mi Calm Calm - N/A Rain , Thunderstorm Rain